Retour au catalogue

STARLINK-4629

ActifCommunicationsVLEO
NORAD 53968·PAYLOAD·🇺🇸 United States

Lancé Oct 5, 2022 depuis Vandenberg Space Force Base

Loading…

Prochains Passages (prochaines 24 heures)

TLE

FraisSource: CelesTrak SupGP

Époque: Sep 15, 2026, 02:55 UTC

1 53968C 22125E   26258.12201389 -.00033862  00000+0 -10006-2 0  2582
2 53968  53.1582  86.6556 0001137  81.1223 216.1222 15.34401734    11

Suivez STARLINK-4629 en temps réel avec AllMySat

Download on the App Store